Skip Page Navigation
NASA JPL Caltech
NASA Logo - Jet Propulsion Laboratory + View the NASA Portal
+ Near-Earth Object (NEO) Program
Search JPL
JPL Home Earth Solar System Stars & Galaxies Technology
JPL Solar System Dynamics
BODIES ORBITS EPHEMERIDES TOOLS PHYSICAL DATA DISCOVERY FAQ SITE MAP
JPL Small-Body Database Browser
Search: [ help ]  
14015 Senancour (1994 BD4)
Classification: Main-belt Asteroid          SPK-ID: 2014015
Ephemeris | Orbit Diagram | Orbital Elements | Physical Parameters | Discovery Circumstances | Close-Approach Data ]

[ show orbit diagram ]
Orbital Elements at Epoch 2456800.5 (2014-May-23.0) TDB
Reference: JPL 3 (heliocentric ecliptic J2000)
 Element Value Uncertainty (1-sigma)   Units 
e .0933515536871307 6.5894e-08  
a 3.152862146939976 4.1503e-08 AU
q 2.858537566961787 2.0043e-07 AU
i 5.968918717806772 7.9548e-06 deg
node 156.6999097716638 6.7464e-05 deg
peri 311.4163340714748 8.1328e-05 deg
M 234.8142139979122 4.813e-05 deg
tp 2457511.563555738040
(2016-May-03.06355574)
0.00027785 JED
period 2044.823843350917
5.60
4.0375e-05
1.105e-07
d
yr
n .1760542851505765 3.4762e-09 deg/d
Q 3.447186726918166 4.5377e-08 AU
  Orbit Determination Parameters
   # obs. used (total)      743  
   data-arc span      11589 days (31.73 yr)  
   first obs. used      1981-10-24  
   last obs. used      2013-07-17  
   planetary ephem.      DE431  
   SB-pert. ephem.      SB431-BIG16  
   condition code      0  
   fit RMS      .52475  
   data source      ORB  
   producer      Otto Matic  
   solution date      2014-Jun-09 20:48:34  

Additional Information
 Earth MOID = 1.87933 AU 
 T_jup = 3.192 
[ show covariance matrix ]

Ephemeris | Orbit Diagram | Orbital Elements | Physical Parameters | Discovery Circumstances | Close-Approach Data ]

Physical Parameter Table
Parameter Symbol Value Units Sigma Reference Notes
absolute magnitude H 13.4 mag n/a MPO266032  

14015 Senancour           Discovered 1994 Jan. 16 by E. W. Elst and C. Pollas at Caussols.
Etienne Pivert de Senancour (1770-1846), a French essayist and philosopher, is considered one of the precursors of the Romantic Movement. His epistolary novel Obermann (1804) was greatly inspired by the philosophical ideas of Jean-Jacques Rousseau.
NOTE: some special characters may not display properly (any characters within {} are an attempt to place the proper accent above a character)
Reference: 20130127/MPCPages.arcLast Updated: 2013-01-31

[ show close-approach data ]
Alternate Designations
 1994 BD4 = 1981 UZ22 
Ephemeris | Orbit Diagram | Orbital Elements | Physical Parameters | Discovery Circumstances | Close-Approach Data ]
ABOUT SSD CREDITS/AWARDS PRIVACY/COPYRIGHT GLOSSARY LINKS
FirstGov 2014-Jul-24 16:56 UT
(server date/time)  
NASA Home Page
Site Manager:   Donald K. Yeomans
Webmaster  Alan B. Chamberlin